This demonstration page uses our WeatherBlox Daily Observations layout. Learn more.

Left ArrowRight Arrow

39.92423, -83.80882

Hourly Observations for February 27, 2016

Temp ( °F °C ) Dew Point ( °F °C ) Humidity (%) Winds ( mph kmh ) Pressure ( in mb ) Visibility ( mi km ) Precip ( " mm )
12:56 am 00:56 Cloudy 30 -1.1 23 -5 75 75 W 6 9 30.21 1023 10 16 N/A
1:56 am 01:56 Cloudy 30 -1.1 23 -5 75 75 W 3 6 30.19 1022 10 16 N/A
2:56 am 02:56 Cloudy 30 -1.1 24 -4.4 79 79 W 5 7 30.19 1023 10 16 N/A
3:56 am 03:56 Cloudy 30 -1.1 23 -5 75 75 WSW 6 9 30.19 1022 10 16 N/A
4:56 am 04:56 Cloudy 30 -1.1 24 -4.4 79 79 WSW 8 13 30.18 1022 10 16 N/A
5:38 am 05:38 Cloudy 30 -1 25 -4 80 80 WSW 7 11 30.21 1023 10 16 N/A
5:56 am 05:56 Cloudy 30 -1.1 24 -4.4 79 79 SW 6 9 30.17 1022 10 16 N/A
6:22 am 06:22 Cloudy 30 -1 25 -4 80 80 WSW 10 17 30.21 1023 10 16 N/A
6:56 am 06:56 Partly Cloudy 28 -2.2 24 -4.4 85 85 WSW 6 9 30.18 1022 10 16 N/A
7:56 am 07:56 Sunny 29 -1.6 24 -4.4 81 81 SSW 5 7 30.18 1022 10 16 N/A
8:56 am 08:56 Sunny 32 undefined 25 -3.8 76 76 SSW 13 20 30.18 1022 10 16 N/A
9:56 am 09:56 Sunny 34 1.1 25 -3.8 70 70 SW 12 19 30.18 1022 10 16 N/A
10:56 am 10:56 Sunny 37 2.7 27 -2.7 68 68 SSW 12 19 30.16 1021 10 16 N/A
11:56 am 11:56 Sunny 40 4.4 28 -2.2 63 63 SSW 12 19 30.14 1021 10 16 N/A
12:56 pm 12:56 Sunny 43 6.1 30 -1.1 60 60 SW 18 30 30.12 1020 10 16 N/A
1:56 pm 13:56 Sunny 46 7.7 30 -1.1 54 54 SSW 15 24 30.08 1019 10 16 N/A
2:56 pm 14:56 Sunny 48 8.8 31 -0.5 52 52 SW 16 26 30.07 1018 10 16 N/A
3:56 pm 15:56 Sunny 49 9.4 31 -0.5 50 50 SW 16 26 30.05 1018 10 16 N/A
4:56 pm 16:56 Sunny 48 8.8 31 -0.5 52 52 SW 15 24 30.03 1017 10 16 N/A
5:56 pm 17:56 Sunny 46 7.7 30 -1.1 54 54 SSW 14 22 30.04 1017 10 16 N/A
6:56 pm 18:56 Clear 43 6.1 30 -1.1 60 60 SSW 6 9 30.04 1017 10 16 N/A
7:56 pm 19:56 Clear 42 5.5 30 -1.1 63 63 SSW 7 11 30.05 1018 10 16 N/A
8:56 pm 20:56 Clear 43 6.1 31 -0.5 63 63 S 9 15 30.02 1017 10 16 N/A
9:56 pm 21:56 Clear 42 5.5 31 -0.5 66 66 S 9 15 30.02 1017 10 16 N/A
10:56 pm 22:56 Clear 42 5.5 32 undefined 68 68 S 12 19 30.00 1016 10 16 N/A
11:56 pm 23:56 Clear 41 5 32 undefined 70 70 S 13 20 30.00 1016 10 16 N/A

Powered by AerisWeather